Location: Marcé
(47.5801°N, 0.3280°W)
Time: 21:52:32
(UTC+01:00)

Transit 2A - Pass Details

Date: 03 December 2021
Orbit: 591 x 967 km, 66.7° (Epoch: 23 January)

Event Time Altitude Azimuth Distance (km) Brightness Sun altitude
Rises 07:09:29 0° 322° (NW) 3,618 - -13.2°
Exits shadow 07:11:39 - 332° (NNW) 3,016 8.6 -12.8°
Reaches altitude 10° 07:12:58 10° 341° (NNW) 2,701 8.5 -12.6°
Maximum altitude 07:17:10 18° 22° (NNE) 2,191 8.4 -12.0°
Drops below altitude 10° 07:21:22 10° 64° (ENE) 2,703 9.5 -11.3°
Sets 07:24:51 0° 83° (E) 3,621 10.7 -10.7°
